• In Italy
  • List of Countries
  • For 7 days
  • Water Temperature
  • Satellite Maps
  • Weather Map
  • Weather Widgets
  • user-avatar
    Login

    Hourly Weather Bugulminka

    Today, 23 October, Tuesday

    Time Temperature Precipitation Wind Pressure Humidity
    00:00 +1°C° 0 mm 3 mps 746 mmHg 81%
    01:00 0°C° 0 mm 3 mps 746 mmHg 82%
    02:00 0°C° 0 mm 3 mps 745 mmHg 82%
    03:00 -1°C° 0 mm 4 mps 745 mmHg 82%
    04:00 0°C° 0 mm 3 mps 745 mmHg 85%
    05:00 0°C° 0 mm 3 mps 744 mmHg 84%
    06:00 -1°C° 0 mm 4 mps 744 mmHg 84%
    07:00 -1°C° 0 mm 4 mps 744 mmHg 83%
    08:00 0°C° 0 mm 5 mps 744 mmHg 78%
    09:00 +1°C° 0 mm 5 mps 743 mmHg 74%
    10:00 +2°C° 0 mm 5 mps 743 mmHg 69%
    11:00 +5°C° 0 mm 5 mps 743 mmHg 65%
    12:00 +6°C° 0 mm 5 mps 742 mmHg 62%
    13:00 +7°C° 0 mm 6 mps 742 mmHg 59%
    14:00 +7°C° 0 mm 6 mps 741 mmHg 58%
    15:00 +7°C° 0 mm 5 mps 740 mmHg 57%
    16:00 +7°C° 0 mm 5 mps 740 mmHg 56%
    17:00 +6°C° 0 mm 5 mps 739 mmHg 57%
    18:00 +5°C° 0 mm 5 mps 739 mmHg 59%
    19:00 +5°C° 0 mm 5 mps 739 mmHg 60%
    20:00 +5°C° 0 mm 5 mps 738 mmHg 60%
    21:00 +5°C° 0 mm 5 mps 737 mmHg 61%
    22:00 +5°C° 0 mm 6 mps 737 mmHg 61%
    23:00 +5°C° 0 mm 6 mps 736 mmHg 65%

    Tomorrow, 24 October, Wednesday

    Time Temperature Precipitation Wind Pressure Humidity
    00:00 +7°C° 0 mm 6 mps 736 mmHg 68%
    01:00 +7°C° 0 mm 6 mps 735 mmHg 71%
    02:00 +7°C° 0 mm 6 mps 735 mmHg 72%
    03:00 +7°C° 0 mm 6 mps 735 mmHg 74%
    04:00 +7°C° 0 mm 6 mps 734 mmHg 75%
    05:00 +8°C° 0.1 mm 6 mps 734 mmHg 78%
    06:00 +8°C° 0.1 mm 6 mps 734 mmHg 81%
    07:00 +8°C° 0.1 mm 6 mps 734 mmHg 84%
    08:00 +8°C° 0.2 mm 7 mps 734 mmHg 85%
    09:00 +8°C° 0.2 mm 7 mps 734 mmHg 85%
    10:00 +8°C° 0.2 mm 7 mps 734 mmHg 86%
    11:00 +8°C° 0.1 mm 7 mps 734 mmHg 85%
    12:00 +8°C° 0.1 mm 7 mps 733 mmHg 84%
    13:00 +8°C° 0.1 mm 7 mps 733 mmHg 83%
    14:00 +9°C° 0 mm 6 mps 733 mmHg 84%
    15:00 +9°C° 0 mm 6 mps 733 mmHg 85%
    16:00 +9°C° 0 mm 6 mps 733 mmHg 86%
    17:00 +9°C° 0.1 mm 6 mps 733 mmHg 87%
    18:00 +9°C° 0.1 mm 5 mps 733 mmHg 88%
    19:00 +9°C° 0.1 mm 5 mps 733 mmHg 89%
    20:00 +9°C° 0.1 mm 5 mps 733 mmHg 88%
    21:00 +9°C° 0.1 mm 5 mps 733 mmHg 88%
    22:00 +9°C° 0.1 mm 5 mps 733 mmHg 87%
    23:00 +9°C° 0 mm 5 mps 733 mmHg 87%

    Day after tomorrow, 25 October, Thursday

    Time Temperature Precipitation Wind Pressure Humidity
    00:00 +8°C° 0 mm 5 mps 733 mmHg 87%
    01:00 +8°C° 0 mm 5 mps 733 mmHg 86%
    02:00 +8°C° 0 mm 5 mps 733 mmHg 87%
    03:00 +7°C° 0 mm 5 mps 733 mmHg 87%
    04:00 +7°C° 0 mm 5 mps 732 mmHg 87%
    05:00 +7°C° 0 mm 5 mps 732 mmHg 86%
    06:00 +7°C° 0 mm 5 mps 732 mmHg 84%
    07:00 +7°C° 0 mm 6 mps 732 mmHg 82%
    08:00 +8°C° 0 mm 6 mps 732 mmHg 78%
    09:00 +8°C° 0 mm 7 mps 731 mmHg 75%
    10:00 +9°C° 0 mm 7 mps 731 mmHg 71%
    11:00 +10°C° 0 mm 8 mps 731 mmHg 68%
    12:00 +11°C° 0 mm 8 mps 730 mmHg 64%
    13:00 +12°C° 0 mm 9 mps 730 mmHg 60%
    14:00 +12°C° 0 mm 8 mps 729 mmHg 61%
    15:00 +13°C° 0 mm 8 mps 729 mmHg 62%
    16:00 +14°C° 0 mm 7 mps 729 mmHg 62%
    17:00 +12°C° 0 mm 7 mps 728 mmHg 61%
    18:00 +12°C° 0 mm 8 mps 728 mmHg 59%
    19:00 +12°C° 0 mm 8 mps 728 mmHg 58%
    20:00 +13°C° 0 mm 9 mps 727 mmHg 57%
    21:00 +13°C° 0 mm 9 mps 727 mmHg 55%
    22:00 +13°C° 0 mm 10 mps 727 mmHg 54%
    23:00 +13°C° 0 mm 10 mps 726 mmHg 53%

    26 October, Friday

    Time Temperature Precipitation Wind Pressure Humidity
    00:00 +12°C° 0 mm 9 mps 726 mmHg 52%
    01:00 +12°C° 0 mm 9 mps 726 mmHg 51%
    02:00 +12°C° 0 mm 9 mps 725 mmHg 52%
    03:00 +12°C° 0 mm 9 mps 725 mmHg 52%
    04:00 +12°C° 0 mm 9 mps 725 mmHg 52%
    05:00 +12°C° 0.1 mm 8 mps 725 mmHg 53%
    06:00 +12°C° 0.1 mm 7 mps 725 mmHg 55%
    07:00 +11°C° 0.1 mm 7 mps 724 mmHg 56%
    08:00 +11°C° 0.6 mm 6 mps 725 mmHg 65%
    09:00 +10°C° 0.6 mm 5 mps 725 mmHg 73%
    10:00 +10°C° 0.6 mm 4 mps 726 mmHg 82%
    11:00 +9°C° 0.1 mm 5 mps 726 mmHg 81%
    12:00 +9°C° 0.1 mm 6 mps 727 mmHg 79%
    13:00 +9°C° 0.1 mm 6 mps 728 mmHg 78%
    14:00 +9°C° 0 mm 5 mps 728 mmHg 73%
    15:00 +8°C° 0 mm 4 mps 729 mmHg 67%
    16:00 +9°C° 0 mm 3 mps 729 mmHg 62%
    17:00 +9°C° 0 mm 3 mps 730 mmHg 65%
    18:00 +8°C° 0 mm 3 mps 730 mmHg 68%
    19:00 +7°C° 0 mm 2 mps 731 mmHg 71%
    20:00 +7°C° 0 mm 3 mps 731 mmHg 73%
    21:00 +5°C° 0 mm 3 mps 731 mmHg 75%
    22:00 +5°C° 0 mm 3 mps 731 mmHg 77%
    23:00 +5°C° 0 mm 3 mps 731 mmHg 78%

    27 October, Saturday

    Time Temperature Precipitation Wind Pressure Humidity
    00:00 +5°C° 0 mm 3 mps 731 mmHg 79%
    01:00 +4°C° 0 mm 3 mps 731 mmHg 80%
    02:00 +4°C° 0 mm 3 mps 732 mmHg 83%
    03:00 +3°C° 0 mm 4 mps 732 mmHg 85%
    04:00 +3°C° 0 mm 4 mps 732 mmHg 87%
    05:00 +2°C° 0 mm 3 mps 733 mmHg 88%
    06:00 +2°C° 0 mm 3 mps 733 mmHg 90%
    07:00 +1°C° 0 mm 3 mps 733 mmHg 91%
    08:00 +1°C° 0 mm 4 mps 734 mmHg 85%
    09:00 +1°C° 0 mm 4 mps 734 mmHg 79%
    10:00 +3°C° 0 mm 4 mps 734 mmHg 73%
    11:00 +3°C° 0 mm 5 mps 735 mmHg 68%
    12:00 +3°C° 0 mm 5 mps 735 mmHg 62%
    13:00 +5°C° 0 mm 5 mps 735 mmHg 57%
    14:00 +3°C° 0 mm 5 mps 735 mmHg 58%
    15:00 +4°C° 0 mm 4 mps 736 mmHg 59%
    16:00 +4°C° 0 mm 4 mps 736 mmHg 59%
    17:00 +3°C° 0 mm 4 mps 736 mmHg 64%
    18:00 +3°C° 0 mm 3 mps 737 mmHg 68%
    19:00 +2°C° 0 mm 3 mps 737 mmHg 73%
    20:00 +2°C° 0 mm 3 mps 738 mmHg 76%
    21:00 +1°C° 0 mm 3 mps 738 mmHg 79%
    22:00 +1°C° 0 mm 3 mps 738 mmHg 83%
    23:00 0°C° 0 mm 4 mps 739 mmHg 84%

    28 October, Sunday

    Time Temperature Precipitation Wind Pressure Humidity
    00:00 -1°C° 0 mm 4 mps 739 mmHg 85%
    01:00 -1°C° 0 mm 4 mps 740 mmHg 86%
    02:00 -1°C° 0 mm 4 mps 740 mmHg 86%
    03:00 -1°C° 0 mm 4 mps 740 mmHg 86%
    04:00 -2°C° 0 mm 4 mps 740 mmHg 85%
    05:00 -1°C° 0 mm 5 mps 740 mmHg 83%
    06:00 -2°C° 0 mm 6 mps 740 mmHg 80%
    07:00 -2°C° 0 mm 7 mps 740 mmHg 78%
    08:00 -1°C° 0 mm 8 mps 739 mmHg 75%
    09:00 0°C° 0 mm 9 mps 739 mmHg 73%
    10:00 +1°C° 0 mm 10 mps 738 mmHg 70%
    11:00 +1°C° 1.2 mm 10 mps 738 mmHg 73%
    12:00 +2°C° 1.2 mm 10 mps 737 mmHg 77%
    13:00 +2°C° 1.2 mm 10 mps 737 mmHg 80%
    14:00 +3°C° 1.9 mm 9 mps 736 mmHg 83%
    15:00 +3°C° 1.9 mm 9 mps 736 mmHg 87%
    16:00 +4°C° 1.9 mm 8 mps 736 mmHg 90%
    17:00 +5°C° 0.9 mm 8 mps 736 mmHg 91%
    18:00 +5°C° 0.9 mm 8 mps 736 mmHg 91%
    19:00 +6°C° 0.9 mm 7 mps 736 mmHg 92%
    20:00 +6°C° 0.1 mm 7 mps 736 mmHg 89%
    21:00 +5°C° 0.1 mm 7 mps 737 mmHg 87%
    22:00 +5°C° 0.1 mm 7 mps 737 mmHg 84%
    23:00 +4°C° 0 mm 7 mps 738 mmHg 83%

    29 October, Monday

    Time Temperature Precipitation Wind Pressure Humidity
    00:00 +3°C° 0 mm 6 mps 739 mmHg 83%
    01:00 +3°C° 0 mm 6 mps 740 mmHg 82%
    02:00 +2°C° 0 mm 6 mps 740 mmHg 81%
    03:00 +2°C° 0 mm 5 mps 741 mmHg 80%
    04:00 +1°C° 0 mm 5 mps 742 mmHg 79%
    05:00 +1°C° 0 mm 5 mps 742 mmHg 79%
    06:00 +1°C° 0 mm 5 mps 743 mmHg 80%
    07:00 0°C° 0 mm 5 mps 743 mmHg 81%
    08:00 +1°C° 0 mm 5 mps 744 mmHg 79%
    09:00 +1°C° 0 mm 5 mps 745 mmHg 77%
    10:00 +1°C° 0 mm 5 mps 745 mmHg 74%
    11:00 +2°C° 0 mm 5 mps 746 mmHg 71%
    12:00 +2°C° 0 mm 5 mps 746 mmHg 68%
    13:00 +3°C° 0 mm 4 mps 747 mmHg 65%
    14:00 +3°C° 0 mm 4 mps 747 mmHg 65%
    15:00 +3°C° 0 mm 3 mps 748 mmHg 66%
    16:00 +3°C° 0 mm 3 mps 748 mmHg 67%
    17:00 +4°C° 0 mm 2 mps 748 mmHg 69%
    18:00 +4°C° 0 mm 1 mps 749 mmHg 72%
    19:00 +4°C° 0 mm 1 mps 749 mmHg 75%
    20:00 +4°C° 0 mm 1 mps 749 mmHg 75%
    21:00 +3°C° 0 mm 0 mps 750 mmHg 75%
    22:00 +3°C° 0 mm 0 mps 750 mmHg 75%
    23:00 +3°C° 0.1 mm 0 mps 750 mmHg 76%
    Show more